Dewpoint
57 58 58 58 58 58 59 59 59 60 60 60 60 61 62 62 60 55 24 40 69 75 75 59 60 62 64 61 63 56 49 41 44 49 50 52 52 56 55 55 55 55 58 60 63
57 57 57 57 57 58 59 59 59 59 59 60 60 61 62 62 53 37 47 73 77 76 62 57 56 58 59 60 59 51 45 43 46 49 48 51 53 54 53 54 54 56 60 63 64
55 55 56 56 56 57 58 59 59 59 59 59 60 61 63 61 30 12 70 76 76 74 62 57 57 56 52 57 55 54 45 46 48 50 49 51 51 53 53 51 53 55 59 62 64
55 55 55 55 56 56 57 58 58 58 58 59 60 62 62 52 -4 45 76 76 76 70 56 52 51 48 50 47 52 49 48 44 47 53 50 51 51 52 52 52 54 55 60 61 63
55 56 56 56 55 56 57 57 57 57 57 58 60 62 51 23 20 62 77 77 73 60 49 48 48 47 48 50 52 49 49 50 47 48 48 50 50 52 52 54 54 57 59 60 61
55 56 56 56 56 56 57 57 57 57 57 58 60 62 50 15 17 66 69 69 57 50 43 46 43 47 50 50 50 52 50 52 51 51 46 49 51 52 53 53 54 55 57 58 59
56 56 56 56 56 56 56 56 56 56 57 58 60 58 42 21 45 60 59 52 46 44 42 43 43 47 50 51 52 52 47 50 52 53 49 50 50 52 53 54 54 54 55 55 57
56 56 56 56 55 55 55 55 56 57 59 59 61 53 34 35 41 35 43 40 38 39 28 28 37 50 50 52 51 51 52 48 52 51 53 47 45 53 54 53 53 54 54 54 55
56 56 56 55 55 55 54 55 57 61 61 62 54 48 41 49 35 34 24 17 14 15 23 27 33 48 48 46 45 50 44 48 47 51 50 47 48 53 54 53 53 53 53 54 54
56 56 56 55 55 54 53 55 55 59 59 57 53 38 36 31 34 17 22 17 13 14 18 28 28 38 47 43 41 43 48 49 45 49 50 51 48 52 53 52 52 53 53 53 54
55 55 55 55 54 53 52 45 38 37 50 36 38 26 36 40 35 21 15 13 12 16 14 20 23 26 43 43 43 44 46 46 48 49 52 53 50 50 52 52 51 51 52 52 52
55 55 55 54 54 53 50 42 42 42 37 37 38 42 42 37 34 33 21 14 13 10 16 16 19 23 29 44 43 45 44 46 46 49 49 49 51 49 49 50 50 50 50 50 51
55 55 54 54 53 46 42 39 41 43 36 35 37 37 36 36 34 32 21 20 16 15 14 13 15 24 33 43 42 43 42 40 43 48 50 50 50 53 54 50 50 50 50 50 50
55 54 53 52 37 45 41 44 39 40 32 31 32 33 32 28 24 30 23 19 19 15 13 12 12 10 30 41 43 40 43 42 43 43 42 49 42 49 52 53 50 49 50 50 53
54 54 53 52 44 37 34 40 38 37 18 31 28 30 28 25 21 19 22 17 15 14 14 12 10 10 12 14 41 39 43 41 42 43 41 44 42 43 49 49 51 50 48 50 52
54 53 52 47 44 44 43 39 39 31 17 27 27 25 21 21 21 21 19 17 17 14 14 12 14 10 10 10 36 34 36 31 35 39 36 38 41 38 45 47 49 51 49 49 52
52 52 51 48 24 39 40 40 31 26 26 26 26 25 22 21 22 21 16 16 14 10 16 11 10 9 9 7 27 33 35 26 28 34 34 34 40 37 40 46 45 50 50 50 51
51 51 49 49 48 43 41 35 32 29 32 30 25 22 20 21 20 15 16 14 17 13 8 5 5 7 9 7 22 28 29 18 17 22 23 35 34 33 39 43 47 50 50 51 50
50 45 46 47 48 42 38 29 20 29 30 29 25 20 21 21 19 13 15 14 16 13 13 8 7 9 11 8 7 7 9 12 13 19 13 20 31 34 44 46 46 50 48 51 51
46 45 46 46 46 43 36 31 35 34 31 29 27 22 21 23 21 13 15 16 16 15 12 8 8 4 5 8 8 7 6 3 6 11 11 10 28 31 36 44 46 46 51 51 51
43 40 41 46 45 41 29 34 36 35 31 30 28 19 19 23 27 20 13 14 17 15 8 5 12 3 10 3 2 5 11 4 5 9 4 6 20 34 33 42 45 46 47 52 53
40 30 43 44 38 40 37 39 38 33 32 30 29 24 19 19 19 22 26 16 19 9 7 4 2 6 1 5 8 5 4 3 4 -1 12 10 13 18 33 38 43 44 46 50 53
39 39 44 41 35 35 36 34 32 32 31 30 25 26 24 24 24 27 30 34 27 12 10 7 5 2 3 5 6 5 4 6 4 5 9 5 7 18 35 39 42 43 47 50 52
41 37 41 41 40 38 35 35 33 34 33 31 27 27 26 26 29 30 38 40 38 36 52 29 7 5 5 6 8 9 8 4 3 4 4 5 5 20 34 38 43 44 47 50 51
42 41 42 38 38 39 37 34 31 32 32 27 27 26 24 27 28 35 41 40 40 47 23 12 9 9 10 9 12 14 12 9 4 5 4 5 17 16 30 37 40 47 48 48 52
43 42 43 41 41 36 33 30 33 34 32 27 29 37 28 24 26 36 40 44 39 39 37 29 13 14 13 14 20 19 18 17 13 10 6 9 6 12 40 46 44 49 51 51 51
46 45 43 41 39 35 35 37 36 36 35 32 34 39 40 40 40 40 40 41 47 46 37 29 27 20 11 20 20 13 14 16 15 8 10 9 10 41 51 47 46 50 51 50 51
Lifted_Index
15 15 15 14 14 14 13 13 12 12 12 12 12 12 11 10 9 7 5 3 -0 -2 -2 -1 -1 -1 -1 -1 -1 -0 1 1 -0 -1 -0 0 1 0 0 0 0 0 0 -1 -1
15 15 15 14 14 14 13 13 12 12 12 12 12 12 11 10 8 7 5 2 -1 -2 -2 -2 -1 -0 -1 -1 -1 -0 0 0 -0 -1 -0 0 1 1 1 1 0 0 -0 -1 -2
15 15 15 14 14 14 14 13 13 12 12 12 12 11 11 9 8 6 4 1 -1 -2 -1 -1 -0 0 -0 -0 -0 -0 -0 0 -0 -1 -1 0 0 0 0 0 0 0 -0 -1 -2
15 15 15 15 14 14 14 14 13 12 12 12 12 11 10 8 7 5 2 -1 -2 -1 1 2 2 1 1 0 -0 -0 -0 0 -0 -0 -0 -0 -0 0 0 0 0 -0 -1 -1 -1
15 15 15 15 14 14 14 14 14 13 12 12 12 11 9 8 6 4 0 -2 -1 2 3 4 3 2 1 0 0 -0 -0 0 0 0 0 -0 -0 -0 -0 0 0 -0 -1 -1 -1
16 15 15 15 15 14 14 14 14 13 12 12 12 11 9 7 6 4 1 1 3 5 5 4 3 2 1 0 -0 -0 -0 -0 0 0 0 0 -0 -0 -0 0 0 0 -0 -1 -1
16 16 15 15 14 14 14 13 13 12 12 12 12 10 9 8 7 6 5 6 7 7 6 5 4 2 1 -0 -1 -1 -1 -0 -0 -0 -0 -0 -1 -0 -0 0 0 0 -0 -0 -0
17 16 16 15 14 14 13 12 11 10 10 11 11 10 9 9 8 8 8 8 8 7 6 5 4 2 1 -0 -1 -1 -1 -1 -1 -1 -1 -1 -1 -1 -0 0 0 0 0 0 0
17 17 16 15 14 13 12 11 10 9 9 9 10 9 9 9 8 8 8 8 7 7 6 6 4 2 1 -0 -1 -1 -1 -1 -1 -1 -1 -1 -1 -1 -0 0 0 0 0 0 0
16 16 16 15 14 13 11 10 9 9 8 8 8 8 8 8 8 8 8 8 7 6 6 5 4 3 1 0 -0 -0 -0 -1 -1 -1 -1 -1 -1 -1 -1 -0 0 0 0 0 0
16 16 16 15 14 12 10 9 9 8 8 7 7 7 7 7 7 8 8 7 7 6 5 5 4 3 2 1 1 0 -0 -1 -1 -1 -2 -2 -2 -1 -1 -0 0 0 1 1 0
16 16 16 15 14 11 9 8 9 8 7 6 6 6 6 7 7 7 7 7 6 5 4 4 3 3 2 2 1 1 0 -1 -1 -1 -1 -1 -2 -1 -1 -0 -0 0 1 1 1
16 16 16 15 13 10 8 8 8 8 6 5 5 5 6 6 6 7 7 7 6 5 4 4 3 3 3 2 1 1 0 -1 -1 -1 -0 -1 -1 -1 -1 -1 -0 -0 0 0 0
16 16 16 14 12 9 8 8 8 7 5 4 4 5 5 5 5 6 6 7 6 5 4 3 3 3 2 2 1 1 -0 -0 -1 -0 -0 -0 -0 -0 -1 -1 -1 -0 -0 0 0
16 16 16 14 12 10 8 8 8 6 4 3 4 4 5 5 5 5 6 6 6 5 5 4 3 3 2 2 1 1 0 -0 -0 -0 0 0 0 -0 -0 -1 -1 -0 -0 0 -0
16 16 15 14 12 11 9 8 6 4 3 3 4 4 4 4 4 5 5 5 5 5 5 4 3 3 3 2 1 1 0 -0 -0 -0 0 0 0 0 0 -0 -1 -1 -0 -0 -0
16 15 15 14 12 11 9 7 5 4 4 4 4 3 3 3 4 4 4 4 4 4 4 3 3 3 3 2 1 1 0 -0 -0 -0 -0 -0 -0 0 1 1 0 -0 -1 -1 -1
15 14 14 13 13 12 9 6 4 4 4 4 4 3 3 3 3 3 3 3 3 4 3 2 2 2 2 2 1 1 0 0 -0 -0 -0 -0 -0 0 1 1 0 -0 -0 -1 -1
14 12 11 12 12 11 8 4 3 4 5 4 3 3 3 3 3 3 2 2 3 3 3 2 2 2 2 1 1 1 1 0 -0 -0 -0 -0 -0 -0 0 0 0 -0 -0 -1 -1
12 10 9 10 10 9 7 4 4 5 5 4 3 3 3 2 2 2 2 1 1 2 2 2 2 1 1 1 1 1 0 0 0 0 -0 -0 -0 -0 0 0 0 -0 -0 -1 -1
11 9 9 9 8 7 6 5 5 6 6 5 4 3 3 2 2 2 2 1 1 1 1 2 2 1 1 1 0 0 0 0 0 0 0 0 0 0 -0 0 0 0 0 -1 -1
10 9 8 8 7 7 6 6 6 7 7 5 4 4 3 2 2 1 1 1 0 -0 0 1 1 1 0 0 0 0 0 0 0 0 0 0 0 0 0 0 1 1 0 -0 -1
10 9 8 7 7 6 6 6 6 7 7 6 5 4 3 2 2 1 1 0 0 -0 -0 0 0 0 -0 0 0 0 0 0 0 0 0 0 0 0 0 0 1 1 1 0 -0
11 9 7 6 6 6 6 6 6 6 6 6 5 4 4 3 2 1 0 -0 -0 -0 -0 -0 -0 -0 0 0 0 0 0 0 0 -0 -0 0 0 0 0 0 1 1 1 0 0
10 9 7 6 6 5 5 5 6 6 6 6 5 5 4 3 3 2 0 -0 -1 -0 -0 -0 -0 0 1 1 1 1 0 0 -0 -0 -0 0 0 0 0 0 0 1 1 0 0
9 9 8 7 6 5 5 5 6 5 5 5 5 4 4 3 3 2 1 -0 -1 -1 -0 -0 0 0 1 1 1 1 0 0 0 -0 -0 -0 -0 -0 0 0 0 0 0 0 -0
9 9 9 8 7 6 5 6 5 5 5 5 4 4 3 3 3 2 1 -0 -1 -1 -1 -0 0 1 1 1 1 0 0 0 0 0 -0 -0 -0 -0 -0 -0 0 0 0 -0 -0